Find Starlink 34177

NORAD ID: 64170 Int'l Des: 2025-113 Owner: SPXS Country: US Constellation: starlink operational
LEOCIRCULAR

当前视图

正在加载3D地球...

About Starlink 34177

Starlink 34177 (NORAD 64170) is a starlink constellation satellite (v2 mini) launched May 28, 2025 by SPXS of US. It operates in LEO, CIRCULAR orbit with a mass of 575.00 kg.

即将过境

Passes for default location (London). Set your location on the main map for personalized predictions.

高度历史

Loading altitude history...

两行轨道根数

1 64170U 25113A 26264.27143543 .00013432 00000-0 44364-3 0 9996
2 64170 53.1580 260.9726 0001490 88.4176 271.6996 15.31713153 75037
Epoch: Sep 21, 2026 • Age: 27 hours

当前状态

高度 471.2 km
远地点 / 近地点 N/A
速度 7.63 km/s
星下点 2.56°N, 119.21°E
发射日期 May 28, 2025
运行时间 1.3 years
类型 internet

技术详情

分类 Payload
质量 575.00 kg
干质量 530.00 kg
长度 0.30 m
跨度 29.00 m
形状 ? Box + pan
制造商 SPXS
平台类型 Starlink V2MO
阶段状态 In Orbit
所有者/国家 SPXS/US

Most Searched